Satellite: SRMSAT Catalog number: 37841 Epoch time: 12157.90340637 Element set: 161 Inclination: 019.9710 deg RA of node: 071.2616 deg Eccentricity: 0.0011701 Arg of perigee: 068.4107 deg Mean anomaly: 291.7576 deg Mean motion: 14.10142236 rev/day Decay rate: 2.64e-06 rev/day^2 Epoch rev: 3359 Checksum: 267
Satellite: RAX-2 Catalog number: 37853 Epoch time: 12158.57338924 Element set: 196 Inclination: 101.7152 deg RA of node: 193.9243 deg Eccentricity: 0.0247146 Arg of perigee: 021.1957 deg Mean anomaly: 339.9269 deg Mean motion: 14.79965231 rev/day Decay rate: 6.087e-05 rev/day^2 Epoch rev: 3282 Checksum: 332
Satellite: AUBIESAT Catalog number: 37854 Epoch time: 12158.86881027 Element set: 197 Inclination: 101.7151 deg RA of node: 194.5867 deg Eccentricity: 0.0247625 Arg of perigee: 019.9236 deg Mean anomaly: 341.1437 deg Mean motion: 14.80342593 rev/day Decay rate: 6.921e-05 rev/day^2 Epoch rev: 3286 Checksum: 320
Satellite: HRBE Catalog number: 37855 Epoch time: 12157.93515433 Element set: 0207 Inclination: 101.7187 deg RA of node: 193.1911 deg Eccentricity: 0.0248695 Arg of perigee: 022.5346 deg Mean anomaly: 338.6557 deg Mean motion: 14.80189942 rev/day Decay rate: 6.085e-05 rev/day^2 Epoch rev: 03272 Checksum: 316
Satellite: RS-39 Catalog number: 38051 Epoch time: 12158.87908565 Element set: 400 Inclination: 051.6350 deg RA of node: 208.9531 deg Eccentricity: 0.0012633 Arg of perigee: 002.1145 deg Mean anomaly: 352.5016 deg Mean motion: 15.24154072 rev/day Decay rate: 9.506e-05 rev/day^2 Epoch rev: 2039 Checksum: 270
Satellite: E-STAR Catalog number: 38079 Epoch time: 12158.83908563 Element set: 273 Inclination: 069.4939 deg RA of node: 339.3143 deg Eccentricity: 0.0747467 Arg of perigee: 260.9524 deg Mean anomaly: 090.6279 deg Mean motion: 14.14217464 rev/day Decay rate: 2.4521e-04 rev/day^2 Epoch rev: 1612 Checksum: 326
Satellite: GOLIAT Catalog number: 38085 Epoch time: 12157.90351288 Element set: 250 Inclination: 069.4918 deg RA of node: 341.6738 deg Eccentricity: 0.0752417 Arg of perigee: 262.2342 deg Mean anomaly: 089.2932 deg Mean motion: 14.13215935 rev/day Decay rate: 2.5298e-04 rev/day^2 Epoch rev: 1598 Checksum: 322
Satellite: HORYU-2 Catalog number: 38340 Epoch time: 12158.95660614 Element set: 24 Inclination: 098.1764 deg RA of node: 098.6634 deg Eccentricity: 0.0013197 Arg of perigee: 008.7013 deg Mean anomaly: 351.4437 deg Mean motion: 14.69960263 rev/day Decay rate: 1.536e-05 rev/day^2 Epoch rev: 297 Checksum: 306
/EX
participants (1)
-
Ray Hoad